Location: Newark
(37.9717°N, 99.9089°W)
Time: 21:51:41
(UTC+00:00)

ISS - Pass Details

Date: 29 July 2019
Orbit: 410 x 421 km, 51.6° (Epoch: 25 August)

Event Time Altitude Azimuth Distance (km) Brightness Sun altitude
Rises 04:25:02 0° 318° (NW) 2,371 1.5 -24.2°
Reaches altitude 10° 04:27:34 10° 338° (NNW) 1,502 0.0 -24.5°
Enters shadow 04:29:54 19° 21° (NNE) 1,071 -1.4 -24.8°
